[[{"header":{"parameterUnit":"m.s-1","parameterCategory":1,"la1":30.2991,"la2":30.254,"lo1":-89.0895,"lo2":-89.0444,"dy":0.0017,"dx":0.0017,"nx":28,"ny":28,"refTime":"2025-08-14T21:00:00:Z","depth":0,"parameterNumber":2,"parameterNumberName":"U-component_of_WINDS"},"data":[0,0,0,0,0,0,0,0,0,0,0,0,0,0,0,0,0,0,0,0,0,0,0,0,0,0,0,0,0,0,0,0,0,0,0,0,0,0,0,0,0,0,0,0,0,0,0,0,0,0,0,0,0,0,0,0,0,0,2.0919,2.092,0,2.0932,2.0932,2.0932,2.0874,2.0873,2.0871,2.0869,2.0883,2.0885,2.0886,0,0,0,0,0,0,0,0,0,0,0,0,0,2.0847,2.0848,2.0919,2.092,2.092,2.0932,2.0932,2.0932,2.0875,2.0872,2.087,2.0868,2.0882,2.0884,2.0887,0,0,0,0,0,0,0,0,0,0,0,0,0,2.0871,2.0849,2.0919,2.0892,2.089,2.0932,2.0932,2.0932,2.0875,2.0872,2.087,2.0867,2.0881,2.0884,2.0887,2.0956,0,0,2.0896,2.0897,0,0,0,0,0,0,0,0,2.0869,2.0873,2.0896,2.0894,2.0892,2.0899,2.0911,2.094,2.0876,2.0881,2.0869,2.0866,2.089,2.0892,2.09,2.0956,2.0957,2.0896,2.0898,2.0899,2.09,0,0,0,0,0,0,0,2.0868,2.0873,2.0924,2.0897,2.0894,2.088,2.0881,2.0917,2.09,2.088,2.0876,2.0878,2.0888,2.0898,2.09,2.0957,2.0896,2.0899,2.09,2.0902,2.1072,2.1075,0,0,0,0,0,0,2.087,2.0872,2.0924,2.0925,2.0874,2.0883,2.0884,2.0899,2.0899,2.0897,2.088,2.0875,2.0894,2.0897,2.09,2.0982,2.0899,2.0902,2.0903,2.107,2.1073,2.1076,0,0,0,0,0,0,2.0868,2.0875,2.0923,2.0897,2.0902,2.0887,2.0905,2.0901,2.091,2.0899,2.0896,2.0893,2.0892,2.0896,2.0943,2.0981,2.0903,2.0906,2.1066,2.1071,2.1074,2.1145,0,0,0,0,0,0,2.0866,2.0875,2.09,2.0898,2.0904,2.0966,2.0907,2.0903,2.0915,2.0909,2.091,2.0908,2.089,2.0939,2.0946,2.0984,2.0908,2.1063,2.1068,2.1073,2.1139,2.1151,2.1161,0,0,0,0,0,2.0864,2.0919,2.0902,2.0908,2.0935,2.0968,2.0971,2.095,2.0918,2.0944,2.0938,2.0908,2.0976,2.0944,2.0951,2.0991,2.106,2.1067,2.1073,2.1134,2.1149,2.1161,0,0,0,0,0,0,2.0926,2.0918,2.0899,2.0955,2.0963,2.0958,2.099,2.0966,2.0982,2.0976,2.0949,2.095,2.1001,2.1001,2.0965,2.1059,2.1013,2.1021,2.1057,2.1071,2.1082,2.1081,2.091,0,0,0,0,0,2.0946,2.0973,2.0965,2.1015,2.102,2.1005,2.1018,2.1001,2.1008,2.1011,2.1007,2.1015,2.1039,2.1055,2.1075,2.1139,2.1139,2.117,2.1181,2.119,2.1198,2.1233,2.1247,2.1097,2.1097,2.1096,0,0,2.0988,2.0987,2.1006,2.1028,2.1032,2.1061,2.1008,2.104,2.1061,2.1015,2.1059,2.1058,2.1065,2.1121,2.1145,2.1122,2.1239,2.1198,2.1206,2.1208,2.1241,2.1255,2.1268,2.1101,2.11,2.1099,0,0,2.1079,2.1081,2.1124,2.1129,2.1136,2.1126,2.1136,2.1135,2.1133,2.1176,2.1143,2.1169,2.1209,2.1216,2.1225,2.1321,2.1295,2.1329,2.1387,2.1421,2.1433,2.1443,2.1479,2.1492,2.1336,2.1336,2.1336,0,2.1131,2.1173,2.1149,2.1184,2.1195,2.1156,2.12,2.1206,2.1219,2.1228,2.1202,2.1253,2.1255,2.1313,2.1337,2.1345,2.1357,2.1328,2.1433,2.1443,2.1453,2.1486,2.1499,2.134,2.134,2.134,2.1339,0,2.1236,2.1266,2.13,2.1314,2.1329,2.1368,2.1352,2.137,2.1352,2.1345,2.1391,2.1392,2.1413,2.1426,2.1408,2.1482,2.1467,2.1438,2.1391,2.1472,2.1503,2.1515,2.1346,2.1345,2.1344,2.1343,0,0,2.1366,2.1368,2.1381,2.1387,2.1393,2.1415,2.1454,2.1474,2.1491,2.1502,2.1534,2.157,2.1544,2.1554,2.1537,2.1568,2.1645,2.1534,2.1534,2.1556,2.1727,2.175,2.1765,2.1628,2.163,2.1632,2.1727,0,2.1456,2.1521,2.1502,2.1567,2.1595,2.1559,2.1592,2.16,2.1594,2.1618,2.1612,2.1638,2.16,2.1607,2.1635,2.163,2.168,2.1623,2.1658,2.166,2.1658,2.1781,2.1805,2.1894,2.1739,2.1741,2.1742,0,2.1569,2.1586,2.1654,2.1656,2.1667,2.1698,2.1716,2.1739,2.1747,2.1741,2.1754,2.1731,2.177,2.1723,2.1777,2.1739,2.1752,2.1752,2.1755,2.1758,2.1706,2.1788,2.1922,2.1936,2.1761,2.176,2.1758,0,2.1658,2.1697,2.1744,2.175,2.1754,2.1776,2.1779,2.1784,2.1799,2.1815,2.1825,2.1845,2.1857,2.1874,2.1858,2.1826,2.1915,2.1866,2.1912,2.1912,2.1932,2.1931,2.2071,2.194,2.194,2.194,2.1939,0,2.1761,2.1805,2.1784,2.1812,2.1861,2.1839,2.1887,2.1886,2.1892,2.192,2.189,2.1917,2.1895,2.192,2.1909,2.1956,2.1961,2.1958,2.1954,2.1961,2.1961,2.1969,2.1963,2.1943,2.1943,2.1942,2.1941,0,2.1869,2.1856,2.1905,2.1904,2.1905,2.1941,2.1941,2.1968,2.1961,2.1998,2.2005,2.1994,2.2023,2.2009,2.2039,2.2031,2.2092,2.208,2.2089,2.2086,2.2133,2.2129,2.2283,2.2303,2.2159,2.216,2.2161,0,2.1935,2.1968,2.1972,2.1989,2.1994,2.2021,2.2036,2.2016,2.2033,2.2046,2.2072,2.2098,2.2118,2.2166,2.2161,2.2184,2.2173,2.2225,2.2176,2.2182,2.2175,2.2173,2.2177,2.2235,2.2237,2.2238,2.2239,0,2.2056,2.2048,2.207,2.2092,2.211,2.2126,2.2139,2.2154,2.2135,2.2156,2.2185,2.2201,2.2232,2.2259,2.228,2.2283,2.2259,2.2255,2.2267,2.2274,2.2279,2.2278,2.2117,2.2252,2.225,2.225,2.2249,2.2248,2.2145,2.2173,2.2181,2.2207,2.2215,2.2228,2.2254,2.2251,2.2275,2.2299,2.2286,2.232,2.2329,2.2355,2.2361,2.2389,2.2368,2.2385,2.2389,2.2394,2.2401,2.2274,2.2392,2.2392,2.2392,2.2391,2.2391,0,2.2265,2.2268,2.2292,2.2312,2.2333,2.2309,2.2322,2.2342,2.2373,2.2383,2.2404,2.2438,2.2465,2.2463,2.2487,2.251,2.2499,2.2517,2.2515,2.2517,2.2417,2.2405,2.2525,2.2525,2.2525,2.2525,2.2525,2.2525,2.2329,2.2376,2.237,2.2421,2.2423,2.2457,2.2467,2.248,2.2488,2.2528,2.255,2.2548,2.2554,2.2579,2.2603,2.2602,2.2612,2.2634,2.2629,2.2536,2.2523,2.2511,2.2499,2.2637,2.2637,2.2726,2.2727,2.2728]},{"header":{"parameterUnit":"m.s-1","parameterCategory":1,"la1":30.2991,"la2":30.254,"lo1":-89.0895,"lo2":-89.0444,"dy":0.0017,"dx":0.0017,"nx":28,"ny":28,"refTime":"2025-08-14T21:00:00:Z","depth":0,"parameterNumber":3,"parameterNumberName":"V-component_of_WINDS"},"data":[0,0,0,0,0,0,0,0,0,0,0,0,0,0,0,0,0,0,0,0,0,0,0,0,0,0,0,0,0,0,0,0,0,0,0,0,0,0,0,0,0,0,0,0,0,0,0,0,0,0,0,0,0,0,0,0,0,0,-1.7048,-1.7048,0,-1.7089,-1.7089,-1.709,-1.7074,-1.7073,-1.7072,-1.7071,-1.7113,-1.7115,-1.7117,0,0,0,0,0,0,0,0,0,0,0,0,0,-1.6954,-1.6956,-1.7048,-1.7048,-1.7049,-1.7089,-1.7089,-1.709,-1.7074,-1.7073,-1.7072,-1.7071,-1.7112,-1.7114,-1.7117,0,0,0,0,0,0,0,0,0,0,0,0,0,-1.6995,-1.6956,-1.7047,-1.7046,-1.7046,-1.7089,-1.7089,-1.709,-1.7074,-1.7073,-1.7071,-1.707,-1.7111,-1.7114,-1.7117,-1.7164,0,0,-1.7126,-1.7128,0,0,0,0,0,0,0,0,-1.6993,-1.6998,-1.7045,-1.7046,-1.7046,-1.7075,-1.7072,-1.7115,-1.7075,-1.7063,-1.7071,-1.7069,-1.7101,-1.7105,-1.7116,-1.7166,-1.7168,-1.7127,-1.7128,-1.713,-1.713,0,0,0,0,0,0,0,-1.699,-1.6997,-1.7064,-1.7046,-1.7046,-1.7042,-1.7047,-1.708,-1.709,-1.7064,-1.7063,-1.7068,-1.7101,-1.7113,-1.7117,-1.7169,-1.7126,-1.7129,-1.7131,-1.7132,-1.726,-1.7261,0,0,0,0,0,0,-1.6987,-1.6994,-1.7063,-1.7065,-1.7015,-1.7045,-1.705,-1.7067,-1.7089,-1.7091,-1.707,-1.7067,-1.7109,-1.7113,-1.7118,-1.7175,-1.713,-1.7132,-1.7134,-1.7258,-1.726,-1.7262,0,0,0,0,0,0,-1.6985,-1.6993,-1.7061,-1.7029,-1.7038,-1.7048,-1.7068,-1.7069,-1.708,-1.7093,-1.7095,-1.708,-1.7108,-1.7114,-1.7153,-1.7176,-1.7134,-1.7136,-1.7256,-1.7259,-1.7261,-1.7289,0,0,0,0,0,0,-1.6982,-1.6993,-1.7011,-1.703,-1.704,-1.7095,-1.7069,-1.707,-1.7086,-1.7083,-1.7104,-1.7105,-1.7107,-1.7149,-1.7156,-1.7179,-1.7139,-1.7254,-1.7257,-1.726,-1.7286,-1.7292,-1.7297,0,0,0,0,0,-1.6979,-1.7017,-1.7012,-1.702,-1.7063,-1.7097,-1.7102,-1.7103,-1.7088,-1.7106,-1.7114,-1.7105,-1.7172,-1.7153,-1.7161,-1.7186,-1.7253,-1.7257,-1.726,-1.7283,-1.729,-1.7297,0,0,0,0,0,0,-1.7,-1.7019,-1.7014,-1.7059,-1.7076,-1.7094,-1.7117,-1.7111,-1.7133,-1.713,-1.713,-1.7135,-1.7175,-1.7184,-1.7162,-1.7232,-1.721,-1.7216,-1.7225,-1.7232,-1.7237,-1.7234,-1.7141,0,0,0,0,0,-1.701,-1.7036,-1.7052,-1.709,-1.7099,-1.7107,-1.7122,-1.7121,-1.7139,-1.7146,-1.7157,-1.7175,-1.72,-1.7216,-1.724,-1.7287,-1.7291,-1.7308,-1.7313,-1.7318,-1.7322,-1.7348,-1.7355,-1.7274,-1.7274,-1.7273,0,0,-1.703,-1.7044,-1.7061,-1.7094,-1.7108,-1.7135,-1.7113,-1.7142,-1.7163,-1.715,-1.7188,-1.7197,-1.7217,-1.726,-1.7279,-1.7268,-1.7346,-1.7322,-1.7326,-1.7328,-1.7352,-1.736,-1.7367,-1.7276,-1.7276,-1.7275,0,0,-1.7082,-1.7095,-1.7128,-1.7142,-1.7163,-1.7168,-1.7176,-1.7194,-1.72,-1.7238,-1.7229,-1.7253,-1.7296,-1.731,-1.7323,-1.738,-1.7372,-1.7388,-1.7417,-1.7442,-1.7448,-1.7454,-1.7474,-1.7481,-1.7393,-1.7393,-1.7393,0,-1.7104,-1.7145,-1.7146,-1.7176,-1.7191,-1.7182,-1.7216,-1.7229,-1.7256,-1.7267,-1.7254,-1.7309,-1.7321,-1.7367,-1.7381,-1.7392,-1.7401,-1.7386,-1.7447,-1.7453,-1.7458,-1.7478,-1.7485,-1.7394,-1.7394,-1.7394,-1.7394,0,-1.7172,-1.7201,-1.7225,-1.7252,-1.727,-1.7302,-1.7307,-1.7325,-1.7323,-1.7329,-1.7367,-1.7382,-1.7409,-1.742,-1.7418,-1.7466,-1.7459,-1.7447,-1.7424,-1.7468,-1.7486,-1.7493,-1.7397,-1.7396,-1.7396,-1.7395,0,0,-1.7238,-1.7265,-1.7274,-1.7286,-1.7308,-1.733,-1.7361,-1.7388,-1.7403,-1.7422,-1.7448,-1.7485,-1.7474,-1.7489,-1.7489,-1.751,-1.7554,-1.7496,-1.7496,-1.7506,-1.7608,-1.7617,-1.7626,-1.7549,-1.7551,-1.7552,-1.7607,0,-1.7291,-1.7346,-1.7348,-1.7398,-1.7425,-1.7416,-1.7443,-1.746,-1.7466,-1.7489,-1.7496,-1.7523,-1.7506,-1.7515,-1.7536,-1.7545,-1.7575,-1.7541,-1.7574,-1.7575,-1.7569,-1.7635,-1.7645,-1.7696,-1.7614,-1.7615,-1.7616,0,-1.736,-1.7382,-1.7435,-1.7454,-1.7465,-1.7489,-1.7514,-1.7536,-1.7554,-1.7557,-1.7574,-1.757,-1.7602,-1.7579,-1.7623,-1.7599,-1.7613,-1.7619,-1.7621,-1.7624,-1.7598,-1.764,-1.7712,-1.772,-1.7627,-1.7626,-1.7625,0,-1.7403,-1.7445,-1.7483,-1.7493,-1.7516,-1.7533,-1.7543,-1.756,-1.7576,-1.7597,-1.7607,-1.7632,-1.7645,-1.7664,-1.7667,-1.765,-1.7711,-1.7688,-1.7715,-1.7715,-1.7728,-1.7727,-1.7803,-1.7737,-1.7737,-1.7736,-1.7736,0,-1.7462,-1.7495,-1.7502,-1.7525,-1.7562,-1.7563,-1.7599,-1.7608,-1.7623,-1.7647,-1.7641,-1.7664,-1.7667,-1.7691,-1.7693,-1.7729,-1.7735,-1.7739,-1.7739,-1.7739,-1.7739,-1.7748,-1.7745,-1.7738,-1.7738,-1.7738,-1.7737,0,-1.7516,-1.7522,-1.7562,-1.758,-1.7585,-1.7611,-1.7627,-1.7649,-1.7654,-1.7685,-1.7693,-1.7702,-1.773,-1.7735,-1.7767,-1.7769,-1.7812,-1.7808,-1.7806,-1.7805,-1.7832,-1.7829,-1.7917,-1.7928,-1.7854,-1.7855,-1.7855,0,-1.7553,-1.7578,-1.7599,-1.7615,-1.7626,-1.7652,-1.7668,-1.767,-1.7687,-1.771,-1.7729,-1.7756,-1.7778,-1.7822,-1.7832,-1.7857,-1.7854,-1.7883,-1.7858,-1.7857,-1.7855,-1.7853,-1.7856,-1.7888,-1.7889,-1.7889,-1.789,0,-1.7619,-1.7621,-1.7644,-1.7669,-1.7689,-1.7708,-1.7727,-1.774,-1.7745,-1.7764,-1.7792,-1.7809,-1.7842,-1.7869,-1.7894,-1.7904,-1.7898,-1.7898,-1.7905,-1.7906,-1.7903,-1.7905,-1.7819,-1.7896,-1.7895,-1.7895,-1.7894,-1.7894,-1.7666,-1.7688,-1.7706,-1.7732,-1.7747,-1.7764,-1.7786,-1.7794,-1.7818,-1.7845,-1.7845,-1.7876,-1.7894,-1.7926,-1.7938,-1.7962,-1.7953,-1.7964,-1.7967,-1.7969,-1.7972,-1.7899,-1.7967,-1.7967,-1.7966,-1.7966,-1.7966,0,-1.7731,-1.7743,-1.7767,-1.7793,-1.7814,-1.7806,-1.7826,-1.7844,-1.7872,-1.7889,-1.791,-1.7943,-1.7969,-1.7981,-1.8006,-1.8023,-1.8021,-1.803,-1.8029,-1.8031,-1.7979,-1.797,-1.8031,-1.8031,-1.8031,-1.8031,-1.8031,-1.8031,-1.7768,-1.7805,-1.7809,-1.7853,-1.7864,-1.7894,-1.7906,-1.7922,-1.7936,-1.7973,-1.7994,-1.8002,-1.8017,-1.8043,-1.8067,-1.807,-1.8079,-1.809,-1.8091,-1.8042,-1.8035,-1.8029,-1.802,-1.8092,-1.8092,-1.8142,-1.8142,-1.8143]}]]